GW4478 Weather Reports


Display with metric or nautical units.
time (UTC)temp
F
wind
direction
speed
MPH
gust
MPH
rain 1hr
in
rain 24hr
in
rain mn
in
humidity
%
barometer
mb
20260510220024 79 316 2.0 4.0 0.00 0.00 0.00 41 1016.6
20260510215506 79 230 2.0 4.0 0.00 0.00 0.00 42 1016.6
20260510215004 79 182 1.0 3.0 0.00 0.00 0.00 40 1016.5
20260510214507 79 232 1.0 3.0 0.00 0.00 0.00 44 1016.5
20260510214004 79 258 1.0 5.0 0.00 0.00 0.00 44 1016.5
20260510213509 79 231 3.0 5.0 0.00 0.00 0.00 44 1016.5
20260510213030 79 181 1.0 4.0 0.00 0.00 0.00 48 1016.6
20260510212510 79 159 2.0 5.0 0.00 0.00 0.00 45 1016.6
20260510212012 79 178 3.0 5.0 0.00 0.00 0.00 47 1016.7
20260510211520 79 174 2.0 4.0 0.00 0.00 0.00 45 1016.6
20260510211010 79 152 1.0 3.0 0.00 0.00 0.00 43 1016.7
20260510210508 79 13 1.0 4.0 0.00 0.00 0.00 42 1016.7
20260510210023 79 165 2.0 4.0 0.00 0.00 0.00 42 1016.7
20260510205510 79 276 1.0 3.0 0.00 0.00 0.00 47 1016.7
20260510205009 79 213 1.0 3.0 0.00 0.00 0.00 45 1016.7
20260510204507 79 360 1.0 3.0 0.00 0.00 0.00 45 1016.6
20260510204003 79 333 1.0 4.0 0.00 0.00 0.00 43 1016.8
20260510203509 78 329 1.0 5.0 0.00 0.00 0.00 43 1017.0
20260510203012 78 161 2.0 5.0 0.00 0.00 0.00 46 1017.0
20260510202510 78 225 3.0 4.0 0.00 0.00 0.00 49 1017.1
20260510202013 78 213 2.0 4.0 0.00 0.00 0.00 47 1017.2
20260510201530 78 200 2.0 6.0 0.00 0.00 0.00 49 1017.2
20260510201008 78 236 4.0 6.0 0.00 0.00 0.00 46 1017.2
20260510200510 78 188 2.0 7.0 0.00 0.00 0.00 51 1017.2
20260510200022 78 351 0.0 6.0 0.00 0.00 0.00 45 1017.3
20260510195503 78 22 1.0 4.0 0.00 0.00 0.00 47 1017.3
20260510195010 78 136 1.0 4.0 0.00 0.00 0.00 48 1017.3
20260510194507 78 72 1.0 5.0 0.00 0.00 0.00 45 1017.4
20260510194007 78 5 2.0 6.0 0.00 0.00 0.00 45 1017.3
20260510193510 79 306 2.0 6.0 0.00 0.00 0.00 46 1017.3
20260510193030 78 200 0.0 4.0 0.00 0.00 0.00 46 1017.4
20260510192510 78 44 3.0 7.0 0.00 0.00 0.00 47 1017.4
20260510192006 77 77 2.0 7.0 0.00 0.00 0.00 47 1017.3
20260510191531 78 28 2.0 4.0 0.00 0.00 0.00 48 1017.4
20260510191011 78 193 1.0 5.0 0.00 0.00 0.00 55 1017.4
20260510190510 78 240 3.0 5.0 0.00 0.00 0.00 54 1017.5
20260510190030 78 235 3.0 5.0 0.00 0.00 0.00 53 1017.6
20260510185507 77 246 2.0 4.0 0.00 0.00 0.00 49 1017.6
20260510185013 78 267 2.0 4.0 0.00 0.00 0.00 56 1017.7
20260510184530 77 277 2.0 4.0 0.00 0.00 0.00 56 1017.7
20260510184011 77 300 3.0 4.0 0.00 0.00 0.00 56 1017.8
20260510183504 77 208 1.0 3.0 0.00 0.00 0.00 50 1017.8
20260510183034 77 220 1.0 5.0 0.00 0.00 0.00 55 1017.8
20260510182512 77 200 3.0 7.0 0.00 0.00 0.00 55 1017.8
20260510182008 77 242 4.0 7.0 0.00 0.00 0.00 58 1017.8
20260510181516 76 283 1.0 7.0 0.00 0.00 0.00 59 1017.8
20260510181007 76 256 3.0 7.0 0.00 0.00 0.00 61 1018.0
20260510180507 76 238 2.0 7.0 0.00 0.00 0.00 61 1018.0
20260510180019 76 241 3.0 7.0 0.00 0.00 0.00 59 1018.1
20260510175510 75 17 2.0 6.0 0.00 0.00 0.00 63 1018.1
20260510175009 75 256 2.0 5.0 0.00 0.00 0.00 57 1018.1
20260510174531 75 313 0.0 2.0 0.00 0.00 0.00 57 1018.2
20260510174014 75 103 0.0 4.0 0.00 0.00 0.00 54 1018.3
20260510173511 75 231 2.0 4.0 0.00 0.00 0.00 56 1018.3
20260510173027 75 285 2.0 4.0 0.00 0.00 0.00 63 1018.3
20260510172510 75 306 2.0 4.0 0.00 0.00 0.00 70 1018.3
20260510172012 73 264 1.0 7.0 0.00 0.00 0.00 69 1018.3
20260510171530 73 240 4.0 7.0 0.00 0.00 0.00 70 1018.3
20260510171009 75 289 2.0 5.0 0.00 0.00 0.00 66 1018.4
20260510170509 74 322 1.0 5.0 0.00 0.00 0.00 73 1018.3
20260510170017 74 296 3.0 5.0 0.00 0.00 0.00 73 1018.4
20260510165510 74 312 4.0 5.0 0.00 0.00 0.00 76 1018.5
20260510165010 73 84 1.0 4.0 0.00 0.00 0.00 75 1018.5
20260510164537 73 213 0.0 6.0 0.00 0.00 0.00 76 1018.6
20260510164014 74 178 3.0 6.0 0.00 0.00 0.00 79 1018.7
20260510163509 73 65 0.0 3.0 0.00 0.00 0.00 77 1018.8
20260510163024 72 332 1.0 4.0 0.00 0.00 0.00 79 1018.8
20260510162514 71 213 2.0 4.0 0.00 0.00 0.00 82 1018.8
20260510162011 71 269 2.0 4.0 0.00 0.00 0.00 82 1018.9
20260510161512 71 281 2.0 5.0 0.00 0.00 0.00 84 1018.8
20260510161013 71 270 2.0 6.0 0.00 0.00 0.00 82 1018.7
20260510160507 71 281 3.0 6.0 0.00 0.00 0.00 82 1018.6
20260510160028 71 310 2.0 7.0 0.00 0.00 0.00 83 1018.7
20260510155516 71 263 3.0 7.0 0.00 0.00 0.00 81 1018.6
20260510155010 71 252 3.0 6.0 0.00 0.00 0.00 83 1018.5
20260510154535 71 156 4.0 6.0 0.00 0.00 0.00 83 1018.5
20260510154008 71 254 4.0 5.0 0.00 0.00 0.00 83 1018.5
20260510153512 71 308 1.0 4.0 0.00 0.00 0.00 84 1018.6
20260510153023 71 279 2.0 4.0 0.00 0.00 0.00 83 1018.6
20260510152514 70 72 1.0 6.0 0.00 0.00 0.00 83 1018.5
20260510152009 70 296 3.0 6.0 0.00 0.00 0.00 87 1018.5
20260510151531 69 318 1.0 4.0 0.00 0.00 0.00 86 1018.4
20260510151013 68 152 1.0 4.0 0.00 0.00 0.00 86 1018.4
20260510150503 68 142 1.0 5.0 0.00 0.00 0.00 86 1018.5
20260510150017 68 157 2.0 5.0 0.00 0.00 0.00 90 1018.6
20260510145511 67 191 3.0 5.0 0.00 0.00 0.00 90 1018.5
20260510145007 67 180 3.0 5.0 0.00 0.00 0.00 91 1018.5
20260510144529 66 137 2.0 5.0 0.00 0.00 0.00 93 1018.6
20260510144012 65 227 3.0 6.0 0.00 0.00 0.00 93 1018.6
20260510143506 65 241 4.0 6.0 0.00 0.00 0.00 94 1018.4
20260510143026 65 232 4.0 6.0 0.00 0.00 0.00 94 1018.5
20260510142513 65 238 5.0 7.0 0.00 0.00 0.00 95 1018.5
20260510142010 64 206 4.0 7.0 0.00 0.00 0.00 95 1018.5
20260510141527 63 219 4.0 5.0 0.00 0.00 0.00 95 1018.5
20260510141009 64 210 2.0 4.0 0.00 0.00 0.00 96 1018.5
20260510140509 64 188 1.0 4.0 0.00 0.00 0.00 96 1018.5
20260510140026 62 155 1.0 3.0 0.00 0.00 0.00 96 1018.5
20260510135510 62 182 1.0 3.0 0.00 0.00 0.00 96 1018.5
20260510135007 61 148 1.0 3.0 0.00 0.00 0.00 96 1018.5
20260510134530 61 194 0.0 2.0 0.00 0.00 0.00 96 1018.4
20260510134005 61 125 1.0 3.0 0.00 0.00 0.00 96 1018.4
20260510133509 60 248 1.0 3.0 0.00 0.00 0.00 96 1018.4
20260510133028 60 190 0.0 2.0 0.00 0.00 0.00 96 1018.4
20260510132508 60 190 0.0 2.0 0.00 0.00 0.00 96 1018.3
20260510132003 59 250 0.0 2.0 0.00 0.00 0.00 96 1018.3
20260510131503 59 250 0.0 2.0 0.00 0.00 0.00 96 1018.5
20260510131004 59 198 0.0 2.0 0.00 0.00 0.00 96 1018.3
20260510130504 59 198 0.0 2.0 0.00 0.00 0.00 96 1018.3
20260510130014 59 193 1.0 3.0 0.00 0.00 0.00 96 1018.3
20260510125504 58 225 0.0 3.0 0.00 0.00 0.00 96 1018.3
20260510125007 58 235 2.0 3.0 0.00 0.00 0.00 96 1018.1
20260510124505 58 188 1.0 2.0 0.00 0.00 0.00 96 1017.9
20260510124004 58 229 1.0 2.0 0.00 0.00 0.00 96 1017.8
20260510123504 58 223 1.0 2.0 0.00 0.00 0.00 96 1017.8
20260510123004 58 211 1.0 4.0 0.00 0.00 0.00 96 1017.7
20260510122502 57 196 1.0 4.0 0.00 0.00 0.00 96 1017.7
20260510122002 57 171 2.0 4.0 0.00 0.00 0.00 96 1017.6
20260510121504 57 161 1.0 2.0 0.00 0.00 0.00 96 1017.6
20260510121007 57 138 0.0 2.0 0.00 0.00 0.00 96 1017.6
20260510120504 56 138 0.0 2.0 0.00 0.00 0.00 96 1017.5
20260510120007 56 138 0.0 2.0 0.00 0.00 0.00 96 1017.5
20260510115506 56 138 1.0 2.0 0.00 0.00 0.00 96 1017.3
20260510115006 56 105 0.0 0.0 0.00 0.00 0.00 96 1017.1
20260510114507 55 105 0.0 2.0 0.00 0.00 0.00 96 1017.0
20260510114004 55 105 0.0 2.0 0.00 0.00 0.00 96 1017.0
20260510113506 54 105 0.0 0.0 0.00 0.00 0.00 96 1016.9
20260510113007 54 105 0.0 0.0 0.00 0.00 0.00 95 1016.9
20260510112506 53 105 0.0 2.0 0.00 0.00 0.00 95 1016.8
20260510112003 53 105 0.0 2.0 0.00 0.00 0.00 95 1016.7
20260510111507 53 105 0.0 2.0 0.00 0.00 0.00 95 1016.5
20260510111003 54 105 0.0 1.0 0.00 0.00 0.00 95 1016.5
20260510110505 54 105 0.0 0.0 0.00 0.00 0.00 95 1016.5
20260510110011 54 105 0.0 0.0 0.00 0.00 0.00 95 1016.4
20260510105504 54 105 0.0 2.0 0.00 0.00 0.00 95 1016.4
20260510105004 54 105 0.0 2.0 0.00 0.00 0.00 95 1016.2
20260510104506 54 105 0.0 2.0 0.00 0.00 0.00 95 1016.1
20260510104004 54 10 0.0 2.0 0.00 0.00 0.00 95 1016.0
20260510103504 54 10 0.0 2.0 0.00 0.00 0.00 95 1015.9
20260510103009 55 10 0.0 1.0 0.00 0.00 0.00 95 1015.9
20260510102504 55 10 1.0 2.0 0.00 0.00 0.00 95 1015.9
20260510102004 54 129 0.0 2.0 0.00 0.00 0.00 95 1015.8
20260510101509 54 129 0.0 0.0 0.00 0.00 0.00 95 1015.7
20260510101004 55 129 0.0 0.0 0.00 0.00 0.00 95 1015.8
20260510100503 54 129 0.0 0.0 0.00 0.00 0.00 95 1015.7
20260510100009 54 129 0.0 0.0 0.00 0.00 0.00 95 1015.7
20260510095503 54 129 0.0 0.0 0.00 0.00 0.00 95 1015.7
20260510095003 54 129 0.0 0.0 0.00 0.00 0.00 95 1015.7
20260510094520 54 129 0.0 2.0 0.00 0.00 0.00 95 1015.7
20260510094007 54 129 0.0 2.0 0.00 0.00 0.00 95 1015.8
20260510093504 54 129 0.0 2.0 0.00 0.00 0.00 95 1015.8
20260510093008 54 129 1.0 2.0 0.00 0.00 0.00 95 1015.7
20260510092504 54 129 0.0 2.0 0.00 0.00 0.00 95 1015.7
20260510092003 54 129 1.0 1.0 0.00 0.00 0.00 95 1015.7
20260510091519 54 134 1.0 2.0 0.00 0.00 0.00 95 1015.8
20260510091004 54 38 0.0 1.0 0.00 0.00 0.00 95 1015.8
20260510090504 55 38 0.0 2.0 0.00 0.00 0.00 95 1015.8
20260510090006 55 38 0.0 2.0 0.00 0.00 0.00 95 1015.7
20260510085503 55 38 0.0 2.0 0.00 0.00 0.00 95 1015.7
20260510085003 55 38 0.0 2.0 0.00 0.00 0.00 95 1015.7
20260510084511 54 150 0.0 1.0 0.00 0.00 0.00 95 1015.6
20260510084002 55 150 0.0 2.0 0.00 0.00 0.00 95 1015.4
20260510083506 55 150 0.0 2.0 0.00 0.00 0.00 95 1015.3
20260510083010 55 150 0.0 0.0 0.00 0.00 0.00 95 1015.2
20260510082504 55 150 0.0 0.0 0.00 0.00 0.00 95 1015.1
20260510082005 55 150 0.0 2.0 0.00 0.00 0.00 95 1015.0
20260510081510 55 150 0.0 2.0 0.00 0.00 0.00 95 1015.0
20260510081006 55 150 0.0 0.0 0.00 0.00 0.00 95 1014.9
20260510080502 55 150 0.0 0.0 0.00 0.00 0.00 95 1014.8
20260510080009 55 150 0.0 0.0 0.00 0.00 0.00 95 1014.8
20260510075504 55 150 0.0 0.0 0.00 0.00 0.00 95 1014.6
20260510075004 56 150 0.0 0.0 0.00 0.00 0.00 95 1014.6
20260510074511 56 150 0.0 0.0 0.00 0.00 0.00 94 1014.6
20260510074004 56 150 0.0 0.0 0.00 0.00 0.00 95 1014.6
20260510073503 56 150 0.0 0.0 0.00 0.00 0.00 94 1014.6
20260510073010 56 150 0.0 0.0 0.00 0.00 0.00 95 1014.5
20260510072503 56 150 0.0 2.0 0.00 0.00 0.00 95 1014.6
20260510072007 56 150 0.0 2.0 0.00 0.00 0.00 94 1014.6
20260510071514 56 150 0.0 2.0 0.00 0.00 0.00 94 1014.7
20260510071004 56 150 0.0 2.0 0.00 0.00 0.00 94 1014.7
20260510070503 57 150 0.0 2.0 0.00 0.00 0.00 94 1014.8
20260510070012 57 150 0.0 2.0 0.00 0.00 0.00 94 1014.8
20260510065506 57 150 0.0 2.0 0.00 0.00 0.00 94 1014.8
20260510065006 57 150 0.0 2.0 0.00 0.00 0.00 94 1014.8
20260510064511 57 150 0.0 2.0 0.00 0.00 0.00 94 1014.8
20260510064005 57 150 0.0 0.0 0.00 0.00 0.00 94 1014.8
20260510063507 57 150 0.0 0.0 0.00 0.00 0.00 94 1014.8
20260510063014 57 150 0.0 0.0 0.00 0.00 0.00 94 1014.8
20260510062503 57 150 0.0 2.0 0.00 0.00 0.00 94 1014.8
20260510062003 56 150 0.0 2.0 0.00 0.00 0.00 94 1014.7
20260510061524 57 150 0.0 1.0 0.00 0.00 0.00 94 1014.9
20260510061006 57 124 0.0 1.0 0.00 0.00 0.00 94 1014.8
20260510060507 57 103 0.0 2.0 0.00 0.00 0.00 94 1014.9
20260510060036 57 103 0.0 2.0 0.00 0.00 0.00 94 1014.8
20260510055507 57 103 0.0 0.0 0.00 0.00 0.00 94 1014.7
20260510055006 58 103 0.0 0.0 0.00 0.00 0.00 93 1014.8
20260510054514 58 103 0.0 2.0 0.00 0.00 0.00 94 1014.8
20260510054005 58 103 0.0 2.0 0.00 0.00 0.00 94 1014.9
20260510053507 58 103 0.0 2.0 0.00 0.00 0.00 93 1014.9
20260510053017 58 103 0.0 2.0 0.00 0.00 0.00 93 1014.9
20260510052507 59 103 0.0 2.0 0.00 0.00 0.00 93 1014.9
20260510052005 59 103 0.0 2.0 0.00 0.00 0.00 93 1014.8
20260510051519 60 103 0.0 2.0 0.00 0.00 0.00 93 1014.8
20260510051011 60 103 0.0 2.0 0.00 0.00 0.00 93 1014.9
20260510050507 60 196 0.0 2.0 0.00 0.00 0.00 94 1014.9
20260510050018 60 196 0.0 2.0 0.00 0.00 0.00 93 1014.9
20260510045507 59 196 0.0 2.0 0.00 0.00 0.00 93 1014.9
20260510045010 59 196 0.0 1.0 0.00 0.00 0.00 92 1014.9
20260510044519 60 196 0.0 2.0 0.00 0.00 0.00 92 1014.7
20260510044006 61 196 0.0 2.0 0.00 0.00 0.00 93 1014.8
20260510043507 61 196 0.0 2.0 0.00 0.00 0.00 93 1014.9
20260510043016 61 196 0.0 2.0 0.00 0.00 0.00 92 1014.9
20260510042507 61 196 0.0 2.0 0.00 0.00 0.00 93 1014.9
20260510042004 61 196 0.0 2.0 0.00 0.00 0.00 93 1015.0
20260510041515 60 196 0.0 2.0 0.00 0.00 0.00 93 1015.0
20260510041005 60 189 0.0 2.0 0.00 0.00 0.00 92 1015.1
20260510040503 61 189 0.0 2.0 0.00 0.00 0.00 92 1015.0
20260510040012 61 189 0.0 2.0 0.00 0.00 0.00 92 1015.0
20260510035502 61 189 0.0 2.0 0.00 0.00 0.00 92 1015.1
20260510035002 62 189 0.0 2.0 0.00 0.00 0.00 92 1015.0
20260510034510 62 198 0.0 2.0 0.00 0.00 0.00 93 1015.1
20260510034004 62 207 1.0 2.0 0.00 0.00 0.00 93 1015.1
20260510033504 61 224 1.0 2.0 0.00 0.00 0.00 93 1015.1
20260510033004 61 196 1.0 2.0 0.00 0.00 0.00 93 1015.1
20260510032502 61 184 1.0 2.0 0.00 0.00 0.00 93 1014.9
20260510032002 61 201 1.0 2.0 0.00 0.00 0.00 93 1014.9
20260510031507 61 192 0.0 2.0 0.00 0.00 0.00 93 1014.9
20260510031003 61 192 0.0 1.0 0.00 0.00 0.00 93 1014.9
20260510030502 61 192 0.0 2.0 0.00 0.00 0.00 93 1014.9
20260510030014 61 192 0.0 2.0 0.00 0.00 0.00 93 1014.8
20260510025504 60 192 0.0 2.0 0.00 0.00 0.00 93 1014.6
20260510025005 60 150 0.0 2.0 0.00 0.00 0.00 93 1014.6
20260510024514 60 125 0.0 2.0 0.00 0.00 0.00 93 1014.7
20260510024004 60 125 0.0 2.0 0.00 0.00 0.00 93 1014.5
20260510023503 60 125 0.0 2.0 0.00 0.00 0.00 92 1014.4
20260510023029 61 125 0.0 1.0 0.00 0.00 0.00 92 1014.4
20260510022506 61 125 0.0 2.0 0.00 0.00 0.00 92 1014.3
20260510022004 61 125 0.0 2.0 0.00 0.00 0.00 92 1014.2
20260510021511 61 125 0.0 2.0 0.00 0.00 0.00 92 1014.0
20260510021003 62 125 0.0 2.0 0.00 0.00 0.00 92 1014.0
20260510020503 62 125 0.0 1.0 0.00 0.00 0.00 92 1013.8
20260510020008 62 125 0.0 1.0 0.00 0.00 0.00 92 1013.8
20260510015503 62 125 0.0 2.0 0.00 0.00 0.00 92 1013.6
20260510015006 62 125 0.0 2.0 0.00 0.00 0.00 91 1013.5
20260510014515 62 125 0.0 2.0 0.00 0.00 0.00 91 1013.5
20260510014006 63 125 0.0 2.0 0.00 0.00 0.00 91 1013.4
20260510013509 63 125 0.0 2.0 0.00 0.00 0.00 91 1013.2
20260510013016 63 125 0.0 2.0 0.00 0.00 0.00 90 1013.3
20260510012503 63 125 0.0 1.0 0.00 0.00 0.00 90 1013.2
20260510012004 64 125 0.0 0.0 0.00 0.00 0.00 90 1013.1
20260510011522 64 125 0.0 0.0 0.00 0.00 0.00 90 1013.1
20260510011008 64 125 0.0 0.0 0.00 0.00 0.00 90 1013.0
20260510010504 64 125 0.0 2.0 0.00 0.00 0.00 89 1012.9
20260510010013 65 125 0.0 2.0 0.00 0.00 0.00 88 1012.9
20260510005503 66 125 0.0 1.0 0.00 0.00 0.00 87 1012.8
20260510005004 66 125 0.0 0.0 0.00 0.00 0.00 87 1012.8
20260510004511 66 125 0.0 0.0 0.00 0.00 0.00 1012.7
20260510004003 67 125 0.0 2.0 0.00 0.00 0.00 1012.5
20260510003504 67 125 0.0 2.0 0.00 0.00 0.00 83 1012.5
20260510003019 68 125 0.0 2.0 0.00 0.00 0.00 83 1012.5
20260510002508 69 125 1.0 1.0 0.00 0.00 0.00 81 1012.4
20260510002006 69 120 1.0 1.0 0.00 0.00 0.00 82 1012.4
20260510001518 69 99 1.0 1.0 0.00 0.00 0.00 84 1012.4
20260510001009 69 192 0.0 1.0 0.00 0.00 0.00 84 1012.5
20260510000509 69 192 1.0 2.0 0.00 0.00 0.00 82 1012.3
20260510000017 69 192 0.0 2.0 0.00 0.00 0.00 82 1012.3
20260509235504 70 192 0.0 2.0 0.00 0.00 0.00 80 1012.2
20260509235003 70 192 0.0 2.0 0.00 0.00 0.00 76 1012.1
20260509234509 70 192 0.0 2.0 0.00 0.00 0.00 80 1012.0
20260509234004 70 192 0.0 2.0 0.00 0.00 0.00 82 1012.0
20260509233505 70 192 0.0 2.0 0.00 0.00 0.00 78 1012.1
20260509233018 70 209 0.0 2.0 0.00 0.00 0.00 78 1012.2
20260509232504 71 207 0.0 2.0 0.00 0.00 0.00 78 1012.1
20260509232008 72 207 0.0 2.0 0.00 0.00 0.00 67 1012.1
20260509231519 72 207 0.0 2.0 0.00 0.00 0.00 67 1012.1
20260509231007 72 207 0.0 2.0 0.00 0.00 0.00 72 1012.1
20260509230507 72 207 0.0 3.0 0.00 0.00 0.00 66 1012.1
20260509230022 72 213 1.0 3.0 0.00 0.00 0.00 66 1012.1
20260509225505 72 218 2.0 3.0 0.00 0.00 0.00 67 1012.1
20260509225007 73 234 0.0 2.0 0.00 0.00 0.00 66 1012.0
20260509224520 73 301 1.0 2.0 0.00 0.00 0.00 63 1011.8
20260509224008 73 237 0.0 3.0 0.00 0.00 0.00 65 1011.9
20260509223511 73 214 2.0 3.0 0.00 0.00 0.00 63 1012.0
20260509223012 73 263 1.0 3.0 0.00 0.00 0.00 63 1011.9
20260509222503 72 258 1.0 5.0 0.00 0.00 0.00 65 1011.8
20260509222007 73 261 2.0 5.0 0.00 0.00 0.00 63 1011.8
20260509221518 73 234 1.0 4.0 0.00 0.00 0.00 63 1011.8
20260509221008 73 310 2.0 4.0 0.00 0.00 0.00 63 1011.8
20260509220507 73 200 1.0 2.0 0.00 0.00 0.00 63 1011.8